Terug naar catalogus

SL-16 DEB

ActiefLEO
NORAD 39873·DEBRIS·🇷🇺 Russia

Gelanceerd Mar 26, 1993 vanaf Baikonur Cosmodrome

Loading…

Volgende Passages (komende 24 uur)

TLE

VersSource: Space-Track

Epoch: Sep 14, 2026, 14:42 UTC

1 39873U 93016AX  26257.61318835  .00002378  00000-0  65994-3 0  9992
2 39873  70.3911 331.7105 0079898  24.0338 336.4492 14.45812560638356

Volg SL-16 DEB in realtime met AllMySat

Download on the App Store